Theta_e
348 347 346 346 345 346 345 345 345 347 348 344 342 339 337 336 337 338 341 341 340 338 343 341 344 346 346 346 345 344 344 343 341 342 340 341 337 333 335 339 337 335 336
350 346 344 346 347 347 346 347 348 347 343 341 342 338 334 334 337 338 337 339 340 340 339 340 342 337 343 347 345 344 344 342 340 338 341 342 341 338 334 337 340 339 339
349 348 346 348 348 345 348 348 347 344 341 336 336 336 335 336 336 336 338 337 339 339 340 339 341 339 337 345 346 344 343 343 341 341 342 341 341 340 340 338 337 339 335
350 349 348 349 348 347 348 347 347 345 341 336 334 336 336 336 334 334 337 337 339 340 340 339 338 339 341 342 342 347 343 343 342 341 339 334 336 340 340 337 340 339 340
350 349 350 348 347 349 349 348 346 346 340 333 336 336 337 335 334 336 336 334 337 339 341 340 338 338 338 340 343 343 345 343 341 341 341 340 338 336 336 337 338 337 337
350 349 349 348 347 348 348 348 346 343 335 338 339 337 336 335 334 335 336 337 336 337 338 341 340 340 340 343 341 340 340 341 341 341 340 341 340 340 340 340 340 340 339
350 350 350 348 349 348 349 348 344 339 335 337 338 336 337 335 334 333 334 335 333 334 338 338 339 343 341 341 339 340 340 341 341 340 340 341 341 341 342 342 341 341 340
351 351 351 348 349 350 350 347 344 338 335 338 333 335 333 337 332 330 333 332 332 335 334 329 336 342 340 339 334 334 335 338 340 340 340 340 340 340 340 340 340 340 341
352 350 350 349 349 350 350 348 343 340 335 337 336 336 334 335 335 331 332 333 331 331 331 329 330 332 336 333 329 326 323 319 322 332 338 340 341 341 341 341 341 341 341
351 351 350 350 349 349 348 349 344 338 336 338 338 335 336 338 332 331 329 328 328 328 329 329 328 327 327 326 326 326 325 324 323 317 317 319 322 324 326 327 329 331 333
351 350 350 351 348 346 348 348 344 337 334 337 339 335 334 333 335 332 328 329 328 327 327 327 329 328 327 326 326 326 326 325 325 324 321 316 315 316 317 317 316 316 316
352 351 352 352 349 348 347 345 342 338 336 336 337 338 335 334 332 331 327 328 328 329 328 328 326 327 327 326 326 326 326 326 326 326 326 325 325 325 318 315 315 316 316
352 353 353 352 351 350 349 342 339 336 334 336 336 337 337 334 333 333 330 327 327 330 331 329 330 329 327 327 327 327 327 326 326 327 328 328 327 326 326 325 323 322 322
352 354 353 353 352 351 349 343 337 336 337 336 337 336 336 334 332 331 330 329 325 327 329 329 330 330 331 329 328 327 328 327 326 327 327 328 329 328 328 327 327 326 325
352 354 352 353 353 352 350 346 338 337 337 333 337 337 334 335 334 333 332 331 327 325 324 328 329 328 329 330 331 329 329 329 328 327 327 328 328 330 329 329 329 329 328
352 351 352 353 352 351 349 347 339 336 335 334 334 333 336 334 335 334 334 333 332 329 325 328 329 329 328 328 328 329 329 328 327 328 329 329 329 330 330 329 328 329 329
352 351 351 354 350 351 350 347 340 336 336 334 336 334 334 333 332 332 334 333 333 331 329 330 330 330 329 330 330 330 330 330 329 329 330 329 330 328 329 329 329 329 328
353 354 353 353 351 351 352 349 343 340 336 335 333 336 335 336 335 333 333 334 333 333 332 330 331 331 331 331 330 329 328 329 330 330 330 329 328 326 327 329 328 328 327
354 353 353 352 351 352 351 349 345 344 339 336 333 333 335 336 336 333 334 335 333 334 334 332 331 331 332 331 330 329 328 327 327 329 328 327 325 324 325 324 325 324 323
354 354 353 353 352 352 351 349 346 346 342 339 335 334 334 335 334 333 334 332 332 333 334 334 333 332 331 331 330 328 327 325 327 326 327 326 324 322 320 319 319 318 317
354 353 354 353 353 352 351 349 347 347 345 342 338 337 335 335 335 335 334 335 334 335 335 334 333 332 330 329 328 327 327 326 325 327 327 324 324 322 316 317 319 319 318
354 354 353 352 351 350 349 348 348 346 346 342 341 339 338 336 336 337 336 337 335 334 334 333 332 331 330 329 328 327 327 326 325 327 326 325 325 320 317 317 317 318 318
355 354 353 352 352 352 352 350 349 347 345 343 343 340 338 338 335 337 337 337 335 333 332 332 332 331 330 329 328 328 328 327 327 327 326 325 324 320 320 320 318 317 317
356 355 354 354 353 353 353 352 349 341 340 343 344 343 341 339 334 335 337 336 334 334 332 331 330 329 330 328 328 329 328 327 327 327 325 320 321 321 317 314 313 312 310
356 356 355 356 356 354 355 354 350 337 341 343 344 343 341 339 334 337 337 334 333 333 331 329 329 330 328 328 327 326 325 324 322 323 322 319 320 315 311 308 308 307 307
357 356 357 357 357 356 356 353 342 345 342 344 343 341 340 338 338 339 337 334 333 330 329 330 329 327 325 322 320 320 320 321 320 318 317 316 313 311 308 306 306 307 309
Wind_Speed
12 9 6 6 6 5 5 5 3 4 1 1 1 4 2 2 3 4 7 7 5 5 9 10 13 11 13 12 12 12 11 10 10 10 9 10 7 7 7 7 7 6 5
12 11 9 7 6 5 6 3 2 3 1 2 7 2 3 4 1 5 6 7 6 5 4 7 12 12 11 12 12 12 12 11 12 11 10 11 11 9 9 9 8 8 8
15 12 10 8 7 6 5 5 3 2 1 3 4 1 1 2 1 2 5 5 7 4 3 5 9 11 9 12 12 13 13 13 11 12 12 12 12 11 11 10 10 9 9
16 14 12 9 7 7 8 7 5 3 2 0 2 1 4 3 0 1 3 2 2 5 3 2 4 7 8 8 11 13 13 13 14 13 12 13 13 13 12 12 13 11 12
19 13 11 9 7 8 9 6 4 3 2 1 3 2 7 4 5 5 3 2 2 6 4 3 3 3 5 6 8 10 12 13 14 13 12 13 13 12 13 14 13 14 13
21 17 13 11 8 7 8 7 6 5 3 2 4 8 6 6 7 4 4 5 5 5 2 3 3 4 4 5 6 7 9 10 11 12 13 14 14 14 15 15 14 15 15
22 20 16 14 12 11 10 9 7 5 5 2 5 5 5 5 7 7 6 5 3 3 2 0 1 4 4 4 3 5 5 7 7 8 10 11 12 13 14 15 15 14 15
23 22 19 16 15 14 14 12 11 5 6 4 2 4 2 2 6 8 9 6 2 3 3 3 2 3 3 3 1 1 2 4 6 4 4 5 9 11 11 12 12 11 13
25 24 21 17 16 17 17 15 13 8 10 5 4 3 2 3 1 4 9 9 4 2 3 3 4 3 3 2 2 2 3 3 2 3 4 5 6 7 8 8 8 9 9
25 24 22 19 18 19 18 17 15 10 9 8 5 3 3 4 3 0 5 8 7 6 5 3 3 2 2 1 1 2 2 4 5 4 4 4 4 6 6 7 7 8 8
24 26 25 22 21 19 17 17 16 13 13 12 11 6 4 3 4 3 2 4 8 7 7 8 8 7 6 4 2 2 2 3 5 5 5 4 5 4 4 4 4 4 5
26 28 28 25 23 22 19 19 17 14 13 13 12 11 9 4 5 4 2 3 5 7 12 10 11 12 10 9 7 5 4 3 3 4 4 4 5 6 6 6 6 7 8
29 28 28 28 27 25 21 20 18 17 15 16 14 11 11 9 6 7 5 3 3 5 5 10 13 15 15 13 12 9 8 8 8 8 7 6 6 7 8 9 9 10 11
32 27 31 31 29 27 23 22 20 19 16 17 17 14 11 10 8 7 6 6 1 1 4 7 7 8 11 16 14 14 14 13 14 14 13 12 11 10 11 11 12 12 12
32 29 32 34 32 29 27 24 22 22 19 19 18 15 14 11 10 8 7 8 6 2 2 4 4 2 5 10 11 14 16 16 16 18 17 17 18 18 16 15 16 17 19
33 30 33 36 33 31 29 27 25 23 21 20 18 17 15 14 12 10 8 10 13 8 2 6 7 5 4 4 6 9 11 13 13 15 17 19 20 21 20 19 18 20 21
35 36 35 38 36 34 32 31 28 25 24 22 21 18 16 14 13 12 11 8 10 11 7 8 10 9 11 10 10 12 14 16 16 16 16 17 17 19 21 20 19 19 22
35 33 33 36 39 36 36 35 33 29 28 26 25 22 21 17 15 14 13 13 11 9 10 11 11 12 14 14 13 13 16 16 18 17 18 15 14 16 17 16 17 19 18
40 37 34 36 39 38 37 39 36 33 31 30 27 26 23 20 20 17 13 16 17 14 12 13 15 12 14 14 13 16 19 22 20 12 9 14 18 17 17 17 15 14 14
42 39 39 38 41 41 40 39 40 37 34 33 30 28 26 24 23 20 20 20 19 17 18 18 18 15 14 12 11 15 21 20 16 16 16 18 16 12 16 18 21 22 20
42 42 40 39 40 41 41 41 41 40 38 36 32 31 27 26 25 24 21 20 18 19 19 17 19 14 15 15 12 13 17 19 21 18 18 15 11 19 15 14 13 11 12
39 40 41 42 42 40 40 40 41 39 39 37 35 30 29 28 25 23 23 22 19 21 22 19 17 15 20 15 15 16 14 14 6 13 11 14 18 18 16 18 17 17 17
38 41 40 41 42 42 40 39 39 35 35 38 35 33 33 29 24 21 19 20 19 19 18 19 20 16 15 16 18 17 16 14 17 21 18 17 21 20 18 18 19 20 20
39 39 40 40 41 42 42 40 36 30 23 33 35 31 34 29 26 22 19 20 17 18 16 14 13 16 16 17 16 15 15 16 18 19 17 8 18 22 16 16 19 23 26
33 36 39 40 41 40 39 38 32 30 29 31 30 29 27 27 23 19 18 16 17 16 14 15 15 15 15 14 12 13 15 13 9 16 19 10 8 15 20 21 17 17 15
33 33 39 41 41 38 37 36 29 31 27 30 25 22 23 21 18 17 17 19 17 15 13 13 12 9 10 12 13 14 14 14 12 5 2 5 11 11 7 15 9 20 18
Wind_Direction
217 214 179 167 170 182 189 213 278 312 328 335 320 110 165 210 202 191 213 210 226 254 228 206 200 196 197 202 203 203 200 203 208 199 203 208 212 214 212 219 225 238 245
220 213 199 196 202 215 251 236 270 289 349 45 117 120 14 328 253 211 206 219 240 264 241 213 214 210 204 207 212 214 213 217 212 213 213 221 224 226 225 229 240 247 253
227 219 212 213 199 210 215 234 255 294 4 113 112 71 208 118 32 92 212 235 239 250 274 206 217 215 211 218 217 218 222 219 225 221 226 231 230 231 236 239 243 245 254
222 217 216 216 203 195 212 220 240 269 247 49 104 320 195 175 240 187 205 174 190 227 227 208 211 216 230 231 228 233 236 232 230 229 233 238 237 239 243 247 252 261 252
220 212 224 214 235 246 206 228 260 255 250 296 111 153 146 135 132 109 111 164 216 223 216 199 205 220 234 242 245 243 240 243 241 239 239 241 241 244 245 250 254 257 257
219 216 224 225 227 221 225 241 253 233 230 150 155 136 141 138 136 122 108 114 108 110 186 217 221 236 251 243 255 251 245 249 253 248 244 246 249 252 255 256 257 259 260
216 220 226 227 225 229 239 241 224 239 211 190 161 126 145 145 165 157 157 144 94 83 104 324 309 204 189 207 256 265 263 263 262 262 259 252 253 255 259 264 263 263 263
218 223 228 228 227 227 231 226 218 247 208 228 144 100 48 55 150 155 164 161 144 126 106 85 129 160 153 127 97 30 341 281 275 273 261 272 255 253 259 263 263 267 270
219 227 229 232 234 225 232 230 220 242 203 189 202 165 110 206 131 204 181 170 174 197 151 113 119 133 157 144 93 32 31 24 348 283 267 262 260 260 264 264 262 262 263
229 228 231 231 232 228 233 228 219 227 198 189 187 208 201 156 161 340 218 206 195 196 212 207 203 196 172 160 88 48 38 30 18 357 334 313 294 285 281 281 281 282 281
230 230 227 228 226 224 223 218 220 216 210 206 203 186 181 167 160 128 221 235 225 222 227 225 233 240 235 238 259 317 322 347 5 0 349 336 330 322 314 314 320 320 318
233 235 229 225 224 225 222 220 219 221 213 216 212 213 199 185 189 146 114 240 232 240 237 243 245 241 250 252 248 267 275 275 296 330 346 343 327 314 303 297 302 308 313
232 233 224 222 224 225 226 214 218 220 213 215 212 212 219 218 212 195 164 152 215 248 251 262 260 249 247 248 252 256 268 272 270 277 290 305 316 315 305 295 295 299 303
232 235 224 224 226 223 220 216 223 221 221 217 216 213 216 219 213 196 177 159 45 300 259 249 245 268 249 240 254 254 264 267 269 272 275 279 287 295 297 297 296 298 300
234 233 225 223 225 222 220 219 222 219 224 221 221 223 224 225 225 228 220 213 192 184 274 228 233 232 253 254 264 258 272 283 284 272 274 279 277 277 280 290 292 293 292
229 233 229 223 223 221 219 220 222 222 221 222 221 224 220 226 226 227 240 233 230 220 206 232 239 238 201 249 279 273 277 284 293 288 286 290 283 282 285 286 291 291 289
229 230 229 224 223 221 221 220 223 222 223 223 223 222 226 228 233 228 233 242 224 217 224 262 244 244 251 269 275 282 290 292 296 297 296 302 297 295 290 287 287 291 291
221 223 225 223 222 224 224 222 223 223 225 224 223 224 228 231 237 239 240 242 239 229 234 247 246 241 258 280 290 304 320 314 304 294 290 288 294 305 306 298 290 290 289
225 224 225 223 224 227 226 225 226 228 228 230 228 225 230 227 235 237 238 239 244 237 227 233 243 255 275 287 304 313 318 314 309 296 283 294 301 298 295 295 293 290 294
223 223 224 225 227 228 229 230 229 231 231 234 234 233 233 231 236 237 244 247 247 243 239 241 256 259 275 287 296 310 316 313 307 296 294 302 300 307 307 298 293 291 293
220 225 224 224 228 227 229 233 234 234 234 235 235 238 239 239 242 245 247 250 249 243 241 245 254 269 278 288 297 312 309 306 302 299 300 297 291 313 312 312 307 298 297
215 220 220 223 224 224 229 235 237 235 239 238 236 238 243 243 245 249 250 254 252 250 253 260 271 272 278 278 295 305 296 291 299 294 278 286 293 305 307 309 305 297 295
206 216 216 220 223 226 232 235 229 233 239 241 238 235 243 242 246 248 254 261 250 260 264 272 272 270 275 287 298 293 293 284 278 289 286 273 297 299 302 301 300 300 296
203 205 211 221 224 228 230 231 226 234 231 247 240 241 241 243 245 249 254 252 252 260 266 273 275 282 283 290 287 291 294 292 289 290 287 259 299 300 308 303 299 292 297
199 200 210 219 222 223 227 230 224 248 215 235 237 237 241 240 245 246 249 245 259 258 256 269 274 279 280 277 282 287 291 294 285 295 301 274 295 302 305 305 304 297 293
203 197 211 219 221 220 222 215 222 218 209 224 230 236 237 241 246 250 236 242 239 251 270 277 277 278 288 290 287 285 286 278 284 289 277 248 286 304 301 301 308 309 304